Estación de Trinidad

Ultimos registro cada 15 minutos 66
Estación Fecha / Hora Temperatura Humedad Lluvia Velocidad Dirección Radiación Presion
66 Trinidad 02-05-2026 16:15 19,9 51 0 0,4 14 287 1017,4
65 Trinidad 02-05-2026 16:00 19,8 50 0 1,8 21 329 1017,4
64 Trinidad 02-05-2026 15:45 20,2 50 0 0,9 355 373 1017,3
63 Trinidad 02-05-2026 15:30 20,2 49 0 0,4 227 411 1017,4
62 Trinidad 02-05-2026 15:15 19,8 50 0 1,3 224 454 1017,4
61 Trinidad 02-05-2026 15:00 18,9 54 0 0 73 487 1017,3
60 Trinidad 02-05-2026 14:45 18,6 53 0 0 298 519 1017,4
59 Trinidad 02-05-2026 14:30 18,6 52 0 0,9 336 545 1017,3
58 Trinidad 02-05-2026 14:15 18 54 0 0,4 311 571 1017,4
57 Trinidad 02-05-2026 14:00 17,9 55 0 1,8 316 598 1017,5
56 Trinidad 02-05-2026 13:45 17,1 56 0 0,9 9 615 1017,7
55 Trinidad 02-05-2026 13:30 16,8 57 0 1,3 18 629 1017,9
54 Trinidad 02-05-2026 13:15 16,2 60 0 0,9 27 640 1018,3
53 Trinidad 02-05-2026 13:00 15,6 60 0 0,4 148 647 1018,6
52 Trinidad 02-05-2026 12:45 15,5 61 0 0,9 297 650 1018,9
51 Trinidad 02-05-2026 12:30 14,9 62 0 0 293 650 1019,2
50 Trinidad 02-05-2026 12:15 14,3 65 0 1,8 279 645 1019,5
49 Trinidad 02-05-2026 12:00 13,7 64 0 1,8 2 636 1019,7
48 Trinidad 02-05-2026 11:45 13,1 67 0 0,9 356 622 1019,9
47 Trinidad 02-05-2026 11:30 12,4 69 0 1,8 33 608 1020
46 Trinidad 02-05-2026 11:15 11,7 73 0 0,9 125 584 1020,2
45 Trinidad 02-05-2026 11:00 11,8 70 0 0,9 135 561 1020,5
44 Trinidad 02-05-2026 10:45 11,3 71 0 0 139 534 1020,7
43 Trinidad 02-05-2026 10:30 10,6 73 0 0 143 508 1020,7
42 Trinidad 02-05-2026 10:15 9,7 74 0 0,4 143 473 1021
41 Trinidad 02-05-2026 10:00 9,2 78 0 0 143 436 1021,2
40 Trinidad 02-05-2026 09:45 8,7 80 0 0,4 144 392 1021,4
39 Trinidad 02-05-2026 09:30 8,4 82 0 0 150 348 1021,4
38 Trinidad 02-05-2026 09:15 8 85 0 0 150 223 1021,2
37 Trinidad 02-05-2026 09:00 7,4 86 0 0 150 37 1021
36 Trinidad 02-05-2026 08:45 6,8 87 0 0 150 200 1021,4
35 Trinidad 02-05-2026 08:30 6,3 90 0 0,4 150 146 1021,3
34 Trinidad 02-05-2026 08:15 5,4 92 0 0 150 76 1021,3
33 Trinidad 02-05-2026 08:00 4,8 91 0 0 150 21 1021,3
32 Trinidad 02-05-2026 07:45 4,6 90 0 0 150 14 1021,1
31 Trinidad 02-05-2026 07:30 4,7 90 0 0 150 5 1021,1
30 Trinidad 02-05-2026 07:15 4,7 90 0 0 150 0 1020,9
29 Trinidad 02-05-2026 07:00 4,9 89 0 0 150 0 1020,9
28 Trinidad 02-05-2026 06:45 5,2 89 0 0 150 0 1020,8
27 Trinidad 02-05-2026 06:30 5,5 89 0 0 150 0 1021
26 Trinidad 02-05-2026 06:15 5,7 89 0 0,4 151 0 1020,9
25 Trinidad 02-05-2026 06:00 5,9 89 0 0 151 0 1021
24 Trinidad 02-05-2026 05:45 5,8 89 0 0 151 0 1021
23 Trinidad 02-05-2026 05:30 5,9 89 0 0 151 0 1021
22 Trinidad 02-05-2026 05:15 5,9 88 0 0,4 151 0 1021,2
21 Trinidad 02-05-2026 05:00 6,1 87 0 0 151 0 1021,2
20 Trinidad 02-05-2026 04:45 6,7 86 0 0 151 0 1021,3
19 Trinidad 02-05-2026 04:30 7,1 86 0 0 151 0 1021,3
18 Trinidad 02-05-2026 04:15 7,1 87 0 0 151 0 1021,5
17 Trinidad 02-05-2026 04:00 7,2 87 0 0,4 151 0 1021,7
16 Trinidad 02-05-2026 03:45 6,8 88 0 1,3 151 0 1021,7
15 Trinidad 02-05-2026 03:30 6,6 88 0 0 151 0 1021,9
14 Trinidad 02-05-2026 03:15 6,8 88 0 0 151 0 1022
13 Trinidad 02-05-2026 03:00 7,1 86 0 0 151 0 1022
12 Trinidad 02-05-2026 02:45 7,8 86 0 0 151 0 1022,2
11 Trinidad 02-05-2026 02:30 8,1 86 0 0 151 0 1022,4
10 Trinidad 02-05-2026 02:15 8,6 85 0 0 151 0 1022,5
9 Trinidad 02-05-2026 02:00 8,8 84 0 0 151 0 1022,5
8 Trinidad 02-05-2026 01:45 9,4 83 0 0 151 0 1022,4
7 Trinidad 02-05-2026 01:30 10 82 0 0 151 0 1022,4
6 Trinidad 02-05-2026 01:15 10,3 81 0 0,9 151 0 1022,7
5 Trinidad 02-05-2026 01:00 10,7 80 0 0,4 151 0 1022,8
4 Trinidad 02-05-2026 00:45 10,9 80 0 0,9 151 0 1023,1
3 Trinidad 02-05-2026 00:30 10,8 80 0 0,9 168 0 1023,3
2 Trinidad 02-05-2026 00:15 10,8 80 0 0,4 168 0 1023,5
1 Trinidad 02-05-2026 00:00 11 80 0 0,4 169 0 1023,5